DW6569 Weather Reports


time (UTC)temp
C
wind
direction
speed
KPH
gust
KPH
rain 1hr
cm
rain 24hr
cm
rain mn
cm
humidity
%
barometer
mb
20260509053006 8 0 0.0 0.0 0.00 0.00 0.00 68 1011.8
20260509052005 8 0 0.0 0.0 0.00 0.00 0.00 68 1011.8
20260509051006 8 0 0.0 0.0 0.00 0.00 0.00 68 1011.8
20260509050005 8 0 0.0 0.0 0.00 0.00 0.00 67 1011.8
20260509045005 8 0 0.0 0.0 0.00 0.00 0.00 67 1011.8
20260509043006 10 0 0.0 0.0 0.00 0.00 0.00 65 1011.8
20260509042005 10 0 0.0 0.0 0.00 0.00 0.00 64 1011.8
20260509040005 10 0 0.0 0.0 0.00 0.00 0.00 63 1012.1
20260509035006 10 0 0.0 0.0 0.00 0.00 0.00 63 1012.1
20260509034006 10 0 0.0 0.0 0.00 0.00 0.00 62 1012.1
20260509033006 10 0 0.0 0.0 0.00 0.00 0.00 62 1012.1
20260509032006 10 0 0.0 0.0 0.00 0.00 0.00 61 1012.5
20260509031006 10 0 0.0 0.0 0.00 0.00 0.00 61 1012.4
20260509030006 11 0 0.0 0.0 0.00 0.00 0.00 60 1012.5
20260509025006 11 0 0.0 0.0 0.00 0.00 0.00 59 1012.5
20260509024005 12 0 0.0 0.0 0.00 0.00 0.00 58 1012.5
20260509023006 12 0 0.0 0.0 0.00 0.00 0.00 57 1012.5
20260509022006 12 0 0.0 0.0 0.00 0.00 0.00 57 1012.5
20260509021006 12 0 0.0 0.0 0.00 0.00 0.00 57 1012.8
20260509020005 12 0 0.0 0.0 0.00 0.00 0.00 56 1012.8
20260509015006 12 0 0.0 0.0 0.00 0.00 0.00 55 1012.8
20260509014006 13 0 0.0 0.0 0.00 0.00 0.00 55 1012.8
20260509013006 13 0 0.0 0.0 0.00 0.00 0.00 55 1012.8
20260509012006 13 0 0.0 0.0 0.00 0.00 0.00 55 1012.8
20260509011006 13 0 0.0 0.0 0.00 0.00 0.00 54 1012.8
20260509010006 14 0 0.0 0.0 0.00 0.00 0.00 53 1012.8
20260509005006 14 0 0.0 0.0 0.00 0.00 0.00 52 1012.8
20260509004006 15 0 0.0 0.0 0.00 0.00 0.00 52 1012.8
20260509003006 15 0 0.0 0.0 0.00 0.00 0.00 51 1012.8
20260509002007 15 0 0.0 0.0 0.00 0.00 0.00 51 1012.8
20260509000005 16 0 0.0 0.0 0.00 0.00 0.00 50 1012.8
20260508234006 17 0 0.0 0.0 0.00 0.00 0.00 47 1012.8
20260508233006 17 0 0.0 0.0 0.00 0.00 0.00 46 1012.8
20260508232006 17 0 0.0 0.0 0.00 0.00 0.00 43 1012.8
20260508231006 17 0 0.0 0.0 0.00 0.00 0.00 42 1012.8
20260508230006 18 0 0.0 0.0 0.00 0.00 0.00 42 1012.8
20260508225006 18 0 0.0 0.0 0.00 0.00 0.00 39 1012.8
20260508222006 18 0 0.0 0.0 0.00 0.00 0.00 37 1012.5
20260508221004 18 0 0.0 0.0 0.00 0.00 0.00 37 1012.5
20260508220004 18 0 0.0 0.0 0.00 0.00 0.00 39 1012.5
20260508215005 18 0 0.0 0.0 0.00 0.00 0.00 37 1012.2
20260508214004 18 0 0.0 0.0 0.00 0.00 0.00 39 1012.1
20260508213005 18 0 0.0 0.0 0.00 0.00 0.00 40 1012.1
20260508212005 19 0 0.0 0.0 0.00 0.00 0.00 40 1011.8
20260508210004 19 0 0.0 0.0 0.00 0.00 0.00 40 1011.8
20260508205005 20 0 0.0 0.0 0.00 0.00 0.00 45 1011.8
20260508204004 20 0 0.0 0.0 0.00 0.00 0.00 44 1011.8
20260508203005 20 0 0.0 0.0 0.00 0.00 0.00 41 1011.5
20260508202004 20 0 0.0 0.0 0.00 0.00 0.00 41 1011.5
20260508201004 20 0 0.0 0.0 0.00 0.00 0.00 44 1012.5
20260508200004 20 0 0.0 0.0 0.00 0.00 0.00 44 1012.8
20260508195004 19 0 0.0 0.0 0.00 0.00 0.00 42 1012.8
20260508194005 19 0 0.0 0.0 0.00 0.00 0.00 40 1012.8
20260508193005 19 0 0.0 0.0 0.00 0.00 0.00 40 1013.2
20260508192005 19 0 0.0 0.0 0.00 0.00 0.00 44 1013.5
20260508191005 18 0 0.0 0.0 0.00 0.00 0.00 43 1013.5
20260508190004 18 0 0.0 0.0 0.00 0.00 0.00 46 1013.8
20260508185004 18 0 0.0 0.0 0.00 0.00 0.00 42 1013.8
20260508184004 18 0 0.0 0.0 0.00 0.00 0.00 46 1014.2
20260508183005 18 0 0.0 0.0 0.00 0.00 0.00 50 1014.2
20260508182005 18 0 0.0 0.0 0.00 0.00 0.00 45 1014.4
20260508181005 17 0 0.0 0.0 0.00 0.00 0.00 47 1014.5
20260508180004 18 0 0.0 0.0 0.00 0.00 0.00 47 1014.5
20260508175004 17 0 0.0 0.0 0.00 0.00 0.00 53 1014.5
20260508174004 17 0 0.0 0.0 0.00 0.00 0.00 53 1014.9
20260508173005 17 0 0.0 0.0 0.00 0.00 0.00 54 1015.2
20260508172005 17 0 0.0 0.0 0.00 0.00 0.00 56 1015.2
20260508171004 16 0 0.0 0.0 0.00 0.00 0.00 55 1015.5
20260508170005 17 0 0.0 0.0 0.00 0.00 0.00 53 1015.5
20260508163005 16 0 0.0 0.0 0.00 0.00 0.00 56 1016.2
20260508162005 15 0 0.0 0.0 0.00 0.00 0.00 54 1016.5
20260508161005 15 0 0.0 0.0 0.00 0.00 0.00 56 1016.5
20260508155009 14 0 0.0 0.0 0.00 0.00 0.00 56 1016.9
20260508154005 14 0 0.0 0.0 0.00 0.00 0.00 56 1016.9
20260508153004 14 0 0.0 0.0 0.00 0.00 0.00 55 1016.9
20260508152005 15 0 0.0 0.0 0.00 0.00 0.00 54 1016.9
20260508151005 14 0 0.0 0.0 0.00 0.00 0.00 59 1016.9
20260508145005 13 0 0.0 0.0 0.00 0.00 0.00 62 1017.2
20260508144005 12 0 0.0 0.0 0.00 0.00 0.00 67 1016.9
20260508142005 12 0 0.0 0.0 0.00 0.00 0.00 68 1016.9
20260508141005 12 0 0.0 0.0 0.00 0.00 0.00 76 1016.9
20260508135004 11 0 0.0 0.0 0.00 0.00 0.00 80 1016.9
20260508134005 10 0 0.0 0.0 0.00 0.00 0.00 82 1016.9
20260508131005 8 0 0.0 0.0 0.00 0.00 0.00 86 1016.5
20260508130005 7 0 0.0 0.0 0.00 0.00 0.00 84 1016.6
20260508125005 7 0 0.0 0.0 0.00 0.00 0.00 88 1016.5
20260508123005 6 0 0.0 0.0 0.00 0.00 0.00 91 1016.5
20260508122005 5 0 0.0 0.0 0.00 0.00 0.00 91 1016.5
20260508121005 5 0 0.0 0.0 0.00 0.00 0.00 91 1016.2
20260508120005 4 0 0.0 0.0 0.00 0.00 0.00 92 1016.5
20260508113005 2 0 0.0 0.0 0.00 0.00 0.00 91 1016.2
20260508112005 1 0 0.0 0.0 0.00 0.00 0.00 91 1015.9
20260508111005 1 0 0.0 0.0 0.00 0.03 0.00 91 1015.5
20260508110005 1 0 0.0 0.0 0.00 0.03 0.00 91 1015.9
20260508105006 1 0 0.0 0.0 0.00 0.03 0.00 91 1015.5
20260508103006 1 0 0.0 0.0 0.00 0.03 0.00 91 1015.2
20260508101006 2 0 0.0 0.0 0.00 0.03 0.00 90 1015.2
20260508100005 2 0 0.0 0.0 0.00 0.03 0.00 90 1015.2
20260508095005 2 0 0.0 0.0 0.00 0.03 0.00 90 1015.0
20260508093005 3 0 0.0 0.0 0.00 0.03 0.00 90 1015.2
20260508092006 3 0 0.0 0.0 0.00 0.03 0.00 90 1015.2
20260508091005 3 0 0.0 0.0 0.00 0.03 0.00 90 1015.2
20260508085005 3 0 0.0 0.0 0.00 0.03 0.00 89 1014.9
20260508082005 3 0 0.0 0.0 0.00 0.03 0.00 88 1014.9
20260508081005 3 0 0.0 0.0 0.00 0.03 0.00 88 1014.9
20260508080005 4 0 0.0 0.0 0.00 0.03 0.00 88 1014.9
20260508074005 4 0 0.0 0.0 0.00 0.03 0.00 87 1014.9
20260508073005 5 0 0.0 0.0 0.00 0.03 0.00 87 1015.2
20260508072005 5 0 0.0 0.0 0.00 0.03 0.00 88 1015.1
20260508071005 5 0 0.0 0.0 0.00 0.03 0.00 87 1014.9
20260508070006 5 0 0.0 0.0 0.00 0.03 0.00 87 1014.9
20260508065006 5 0 0.0 0.0 0.00 0.05 0.00 87 1014.9
20260508064005 5 0 0.0 0.0 0.00 0.08 0.00 86 1014.9
20260508063010 5 0 0.0 0.0 0.00 0.08 0.00 86 1014.9
20260508062005 5 0 0.0 0.0 0.00 0.10 0.00 85 1014.9
20260508060005 5 0 0.0 0.0 0.00 0.10 0.00 84 1015.2
20260508055005 6 0 0.0 0.0 0.00 0.10 0.00 84 1014.9
20260508054006 6 0 0.0 0.0 0.00 0.10 0.00 83 1015.2